contact:dominique.lefevre@mio.osupytheas.fr, maurice.libes@osupytheas.fr
Project:EMSO Ligure-ouest http://www.emso-fr.org/EMSO-France
Sensor Aquadopp, line 13 Serial AQD14315 
DOI : "https://doi.org/10.17882/74513; https://doi.org/10.17882/83244" 
Title:EMSO Ligure Ouest : Data ligne ALBATROSS capteur AQUADOPP - deploiement 2021
Id,Date,Profondeur,Latitude,Longitude,X_East,Y_North,Z_Up,Amplitude_X,Amplitude_Y,Amplitude_Z,Batterie,SoundSpeed,Heading,Pitch,Roll,Pressure,Temperature,Speed,Direction
, , m, degrees North, degrees East, m.s-1, m.s-1,m.s-1, 1, 1, 1, Volt, m.s-1, degree, degree, degree, dbar, degree_C, m.s-1, degree
13,2022-05-14T22:00:00,2400.0,42.79,6.0312,0.067,-0.038,-0.005,67.0,59.0,61.0,11.8,1504.8,133.1,-1.0,-0.3,2394.434,13.33,0.077,119.6
13,2022-05-14T22:30:00,2400.0,42.79,6.0312,0.075,-0.017,-0.022,67.0,59.0,61.0,11.8,1504.8,123.6,-0.7,-0.8,2394.452,13.33,0.076,102.8
13,2022-05-14T23:00:00,2400.0,42.79,6.0312,0.074,-0.035,-0.02,67.0,60.0,62.0,11.8,1504.8,133.3,-1.2,-0.4,2394.435,13.33,0.081,115.3
13,2022-05-14T23:30:00,2400.0,42.79,6.0312,0.082,-0.007,-0.029,66.0,58.0,59.0,11.8,1504.8,112.8,-0.7,-0.6,2394.374,13.33,0.082,94.9
13,2022-05-15T00:00:00,2400.0,42.79,6.0312,0.066,-0.051,-0.022,67.0,58.0,60.0,11.8,1504.8,136.1,-0.7,-0.8,2394.383,13.33,0.083,127.7
13,2022-05-15T00:30:00,2400.0,42.79,6.0312,0.083,0.001,-0.002,67.0,59.0,62.0,11.8,1504.9,113.5,-1.0,-0.5,2394.403,13.34,0.083,89.3
13,2022-05-15T01:00:00,2400.0,42.79,6.0312,0.089,-0.055,0.01,63.0,61.0,58.0,11.8,1504.8,134.9,-0.8,-0.9,2394.351,13.33,0.104,121.7
13,2022-05-15T01:30:00,2400.0,42.79,6.0312,0.081,-0.015,-0.023,65.0,58.0,61.0,11.8,1504.8,131.1,-0.8,-0.6,2394.366,13.33,0.082,100.5
13,2022-05-15T02:00:00,2400.0,42.79,6.0312,0.077,-0.029,-0.017,67.0,61.0,62.0,11.8,1504.8,130.2,-0.5,-0.6,2394.366,13.33,0.082,110.6
13,2022-05-15T02:30:00,2400.0,42.79,6.0312,0.091,-0.006,0.001,66.0,59.0,63.0,11.8,1504.8,118.3,-0.1,-0.5,2394.425,13.33,0.091,93.8
13,2022-05-15T03:00:00,2400.0,42.79,6.0312,0.089,0.011,0.014,70.0,60.0,61.0,11.8,1504.8,111.9,-1.0,-0.8,2394.435,13.33,0.089,83.0
13,2022-05-15T03:30:00,2400.0,42.79,6.0312,0.073,-0.039,-0.018,67.0,61.0,67.0,11.8,1504.8,134.6,-0.9,-0.8,2394.477,13.33,0.082,118.1
13,2022-05-15T04:00:00,2400.0,42.79,6.0312,0.098,-0.003,-0.013,69.0,61.0,61.0,11.8,1504.8,120.9,-0.8,-0.7,2394.489,13.33,0.098,91.8
13,2022-05-15T04:30:00,2400.0,42.79,6.0312,0.081,-0.036,0.004,68.0,62.0,64.0,11.8,1504.8,125.2,-0.6,-0.8,2394.541,13.33,0.088,114.0
13,2022-05-15T05:00:00,2400.0,42.79,6.0312,0.088,0.004,-0.002,69.0,60.0,63.0,11.8,1504.8,130.0,-0.5,-0.8,2394.536,13.33,0.088,87.4
13,2022-05-15T05:30:00,2400.0,42.79,6.0312,0.073,-0.025,-0.029,66.0,61.0,59.0,11.8,1504.8,132.9,-0.3,-0.5,2394.567,13.33,0.077,108.9
13,2022-05-15T06:00:00,2400.0,42.79,6.0312,0.08,0.001,-0.017,66.0,59.0,62.0,11.8,1504.8,114.3,-0.5,-0.5,2394.587,13.33,0.08,89.3
13,2022-05-15T06:30:00,2400.0,42.79,6.0312,0.085,-0.02,0.0,67.0,60.0,61.0,11.8,1504.8,116.9,-0.6,-0.7,2394.562,13.33,0.087,103.2
13,2022-05-15T07:00:00,2400.0,42.79,6.0312,0.093,-0.035,0.011,66.0,62.0,62.0,11.8,1504.8,127.4,-0.6,-0.6,2394.601,13.33,0.099,110.6
13,2022-05-15T07:30:00,2400.0,42.79,6.0312,0.072,-0.044,-0.011,68.0,62.0,61.0,11.8,1504.8,127.9,-1.1,-0.3,2394.512,13.33,0.084,121.4
13,2022-05-15T08:00:00,2400.0,42.79,6.0312,0.102,-0.012,0.036,69.0,59.0,65.0,11.8,1504.8,119.2,-0.8,-0.6,2394.549,13.33,0.102,96.7
13,2022-05-15T08:30:00,2400.0,42.79,6.0312,0.086,-0.02,0.006,67.0,60.0,64.0,11.8,1504.8,125.5,-0.6,-0.6,2394.511,13.33,0.088,103.1
13,2022-05-15T09:00:00,2400.0,42.79,6.0312,0.085,-0.045,-0.006,66.0,61.0,62.0,11.8,1504.8,138.2,-0.5,-0.7,2394.505,13.33,0.096,117.9
13,2022-05-15T09:30:00,2400.0,42.79,6.0312,0.068,-0.022,0.004,67.0,58.0,60.0,11.8,1504.8,117.8,-0.6,-0.8,2394.459,13.33,0.071,107.9
13,2022-05-15T10:00:00,2400.0,42.79,6.0312,0.057,-0.051,-0.018,69.0,60.0,63.0,11.8,1504.8,136.1,-0.4,-0.5,2394.418,13.33,0.076,131.8
13,2022-05-15T10:30:00,2400.0,42.79,6.0312,0.072,-0.049,-0.014,66.0,59.0,62.0,11.8,1504.8,147.5,-0.6,-0.8,2394.416,13.33,0.087,124.2
13,2022-05-15T11:00:00,2400.0,42.79,6.0312,0.079,-0.034,-0.015,66.0,58.0,60.0,11.8,1504.8,132.5,-0.6,-0.9,2394.422,13.33,0.086,113.3
13,2022-05-15T11:30:00,2400.0,42.79,6.0312,0.081,-0.022,0.005,69.0,61.0,64.0,11.8,1504.8,126.5,-0.8,-0.7,2394.388,13.33,0.083,105.2
13,2022-05-15T12:00:00,2400.0,42.79,6.0312,0.058,-0.052,0.018,66.0,57.0,61.0,11.8,1504.8,131.6,-0.9,-0.6,2394.368,13.33,0.077,131.9
13,2022-05-15T12:30:00,2400.0,42.79,6.0312,0.075,-0.032,-0.021,65.0,57.0,60.0,11.8,1504.8,142.8,-0.4,-1.0,2394.347,13.33,0.081,113.1
13,2022-05-15T13:00:00,2400.0,42.79,6.0312,0.096,-0.023,-0.002,66.0,59.0,60.0,11.8,1504.8,122.4,-0.8,-0.4,2394.337,13.33,0.098,103.5
13,2022-05-15T13:30:00,2400.0,42.79,6.0312,0.071,-0.02,-0.024,66.0,60.0,62.0,11.8,1504.8,128.2,-0.9,-0.6,2394.367,13.33,0.073,105.7
13,2022-05-15T14:00:00,2400.0,42.79,6.0312,0.076,-0.015,0.005,69.0,57.0,59.0,11.8,1504.8,118.6,-0.7,-0.6,2394.379,13.33,0.077,101.2
13,2022-05-15T14:30:00,2400.0,42.79,6.0312,0.061,-0.061,-0.035,64.0,59.0,60.0,11.8,1504.8,143.6,-0.8,-0.5,2394.349,13.33,0.086,135.0
13,2022-05-15T15:00:00,2400.0,42.79,6.0312,0.073,-0.047,-0.007,67.0,59.0,59.0,11.8,1504.8,138.1,-0.7,-0.7,2394.392,13.33,0.086,122.8
13,2022-05-15T15:30:00,2400.0,42.79,6.0312,0.074,-0.003,-0.018,64.0,59.0,59.0,11.8,1504.8,120.4,-0.8,-0.7,2394.382,13.33,0.074,92.3
13,2022-05-15T16:00:00,2400.0,42.79,6.0312,0.059,-0.032,0.01,65.0,59.0,60.0,11.8,1504.8,142.7,-0.7,-0.7,2394.505,13.33,0.067,118.5
13,2022-05-15T16:30:00,2400.0,42.79,6.0312,0.072,-0.036,-0.016,65.0,57.0,60.0,11.8,1504.8,150.1,-0.8,-0.6,2394.494,13.33,0.08,116.6
13,2022-05-15T17:00:00,2400.0,42.79,6.0312,0.061,-0.046,-0.028,62.0,57.0,57.0,11.8,1504.8,138.9,-0.4,-0.6,2394.507,13.33,0.076,127.0
13,2022-05-15T17:30:00,2400.0,42.79,6.0312,0.066,-0.034,-0.012,61.0,54.0,56.0,11.8,1504.8,136.6,-1.0,-0.9,2394.542,13.33,0.074,117.3
13,2022-05-15T18:00:00,2400.0,42.79,6.0312,0.076,-0.022,0.001,61.0,58.0,59.0,11.8,1504.8,132.5,-0.8,-0.4,2394.551,13.33,0.079,106.1
13,2022-05-15T18:30:00,2400.0,42.79,6.0312,0.068,-0.015,-0.01,67.0,55.0,60.0,11.8,1504.8,130.3,-0.5,-0.6,2394.586,13.33,0.069,102.4
13,2022-05-15T19:00:00,2400.0,42.79,6.0312,0.073,-0.03,0.016,67.0,59.0,59.0,11.8,1504.8,130.2,-0.6,-0.5,2394.562,13.33,0.078,112.3
13,2022-05-15T19:30:00,2400.0,42.79,6.0312,0.068,-0.026,-0.002,61.0,59.0,59.0,11.8,1504.8,136.9,-0.6,-0.6,2394.606,13.33,0.072,110.9
13,2022-05-15T20:00:00,2400.0,42.79,6.0312,0.071,-0.004,-0.006,62.0,57.0,61.0,11.8,1504.8,140.9,-0.8,-0.6,2394.57,13.33,0.071,93.2
13,2022-05-15T20:30:00,2400.0,42.79,6.0312,0.064,-0.021,0.0,63.0,55.0,57.0,11.8,1504.8,135.6,-0.5,-0.4,2394.54,13.33,0.067,108.2
13,2022-05-15T21:00:00,2400.0,42.79,6.0312,0.083,-0.04,0.011,68.0,59.0,60.0,11.8,1504.8,142.0,-0.8,-0.5,2394.531,13.33,0.092,115.7
